Location: Newark
(42.8481°N, 0.4872°E)
Time: 17:53:10
(UTC+00:00)

Vanguard 2 - Pass Details

Date: 03 November 2020
Orbit: 554 x 2937 km, 32.9° (Epoch: 27 November)

Event Time Altitude Azimuth Distance (km) Brightness Sun altitude
Rises 17:36:15 0° 230° (SW) 4,261 12.6 -9.4°
Reaches altitude 10° 17:38:53 10° 223° (SW) 3,568 11.8 -9.9°
Maximum altitude 17:47:50 42° 156° (SSE) 2,631 10.1 -11.5°
Enters shadow 17:59:41 14° 95° (E) 4,938 11.0 -13.6°
Drops below altitude 10° 18:01:31 10° 93° (E) 5,392 - -14.0°
Sets 18:06:33 0° 88° (E) 6,620 - -14.9°
